Regional Weather Roundup
Issued by NWS

Home | Current Version | Previous Version | Graphics & Text | Print | Product List | Glossary On
Versions: 1 2 3 4 5 6 7 8 9 10 11 12 13 14 15 16 17 18 19 20 21 22 23 24 25 26 27 28 29 30 31 32 33 34 35 36 37 38 39 40 41 42 43 44 45 46 47 48 49 50
000
ASUS45 KCYS 040910
RWRWY

WYOMING REGIONAL WEATHER ROUNDUP
NATIONAL WEATHER SERVICE CHEYENNE WY
300 AM MDT FRI SEP 04 2015

NOTE:  "FAIR" INDICATES FEW OR NO CLOUDS BELOW 12,000 FEET
WITH NO SIGNIFICANT WEATHER AND/OR OBSTRUCTIONS TO VISIBILITY.

WYZ001-041000-
YELLOWSTONE NATIONAL PARK

CITY           SKY/WX    TMP DP  RH WIND       PRES   REMARKS
LK YELLOWSTONE   N/A     42  40  92 CALM      30.04F
W YELLOWSTONE  NOT AVBL

$$
WYZ002>013-054>058-071-098>099-041000-
NORTHERN WYOMING

CITY           SKY/WX    TMP DP  RH WIND       PRES   REMARKS
JACKSON        FAIR      54  46  76 CALM      29.95S
CODY           FAIR      54  45  71 N12       29.92F
GREYBULL       FAIR      63  47  55 W10       29.83R
WORLAND        FAIR      63  43  48 NE5       29.86S
SHERIDAN       FAIR      53  42  66 W6        29.87R
BUFFALO        FAIR      59  40  49 NW5       29.91R
GILLETTE       FAIR      55  41  59 SW5       29.85S
HULETT         FAIR      72  45  37 CALM      29.83S
NEWCASTLE      FAIR      66  41  39 MISG      29.84S

$$
WYZ014>020-022>026-101>103-041000-
CENTRAL WYOMING

CITY           SKY/WX    TMP DP  RH WIND       PRES   REMARKS
BIG PINEY      FAIR      42  34  73 NW5       30.03S
PINEDALE       PTSUNNY   45  36  70 CALM      30.03S
DUBOIS         FAIR      46  36  66 W7        30.02S
LANDER         FAIR      66  33  29 SW8       29.89S
RIVERTON       FAIR      62  40  44 E7        29.90F
CASPER         FAIR      64  40  41 W6        29.91S
DOUGLAS        FAIR      56  47  71 E3        29.92R

$$
WYZ021-027>030-104>119-041000-
SOUTHERN WYOMING

CITY           SKY/WX    TMP DP  RH WIND       PRES   REMARKS
EVANSTON       FAIR      59  29  31 SW13      30.01S
KEMMERER       FAIR      54  30  40 CALM      30.03S
FORT BRIDGER   MOSUNNY   57  30  35 S10       30.05R
ROCK SPRINGS   FAIR      59  37  44 SE10      30.01S
DIXON          FAIR      57  44  61 E7        30.08S
RAWLINS        FAIR      52  43  71 NE5       30.05S
SARATOGA       FAIR      54  45  71 SE9       30.08S
LARAMIE        FAIR      45  32  60 S10       30.09F
CHEYENNE       FAIR      53  43  68 W10       30.00F
TORRINGTON     FAIR      59  51  75 S3        29.87S
PINE BLUFFS    FAIR      48  45  87 SW5       29.97S

$$


USA.gov is the U.S. government's official web portal to all federal, state and local government web resources and services.